This demonstration page uses our WeatherBlox Daily Observations layout. Learn more.

Left ArrowRight Arrow

Hourly Observations for July 4, 2016

Temp ( °F °C ) Dew Point ( °F °C ) Humidity (%) Winds ( mph kmh ) Pressure ( in mb ) Visibility ( mi km ) Precip ( " mm )
12:59 am 00:59 Mostly Cloudy 68 20 66 18.9 93 93 Calm 30.11 1020 7 11 0.00 0.00
1:59 am 01:59 Cloudy 69 20.6 67 19.4 93 93 Calm 30.11 1020 7 11 0.00 0.00
2:59 am 02:59 Cloudy 70 21.1 67 19.4 90 90 Calm 30.09 1019 8 13 0.00 0.00
3:59 am 03:59 Cloudy 70 21.1 67 19.4 90 90 Calm 30.10 1019 8 13 0.00 0.00
4:59 am 04:59 Cloudy 70 21.1 67 19.4 90 90 Calm 30.11 1020 9 14 0.00 0.00
5:59 am 05:59 Cloudy with Light Rain 69 20.6 68 20 96 96 Calm 30.12 1020 7 11 0.00 0.03
6:59 am 06:59 Cloudy with Light Rain 71 21.7 68 20 90 90 Calm 30.12 1020 8 13 0.00 0.03
7:59 am 07:59 Cloudy with Light Rain 72 22.2 69 20.6 91 91 NE 7 11 30.11 1020 6 10 0.00 0.03
8:18 am 08:18 Cloudy with Light Rain 72 22.2 69 20.6 91 91 ENE 8 13 30.12 1020 9 14 0.00 0.03
8:59 am 08:59 Mostly Cloudy 73 22.8 68 20 84 84 E 8 13 30.11 1020 10 16 0.00 0.03
9:59 am 09:59 Mostly Cloudy 74 23.3 67 19.4 79 79 S 5 7 30.14 1021 10 16 0.00 0.00
10:14 am 10:14 Cloudy with Light Rain 74 23.3 67 19.4 79 79 SSE 3 6 30.15 1021 9 14 0.00 0.03
10:59 am 10:59 Cloudy with Light Rain 73 22.8 70 21.1 90 90 ESE 5 7 30.13 1020 7 11 0.01 0.25
11:23 am 11:23 Cloudy with Light Rain 73 22.8 70 21.1 90 90 ESE 7 11 30.12 1020 4 6 0.01 0.25
11:59 am 11:59 Cloudy 73 22.8 70 21.1 90 90 SE 6 9 30.12 1020 10 16 0.03 0.76
12:59 pm 12:59 Cloudy 74 23.3 71 21.7 91 91 VRB 3 6 30.11 1020 9 14 0.03 0.76
1:59 pm 13:59 Mostly Cloudy 76 24.4 71 21.7 85 85 SE 7 11 30.08 1019 10 16 0.01 0.25
2:59 pm 14:59 Cloudy 77 25 72 22.2 85 85 S 5 7 30.07 1018 10 16 0.00 0.00
3:59 pm 15:59 Cloudy 77 25 71 21.7 82 82 SSE 3 6 30.04 1017 10 16 0.00 0.03
4:59 pm 16:59 Mostly Cloudy 78 25.6 72 22.2 82 82 SSE 6 9 30.04 1017 10 16 0.00 0.03
5:59 pm 17:59 Mostly Cloudy 78 25.6 73 22.8 85 85 SSE 6 9 30.02 1017 10 16 0.00 0.00
6:59 pm 18:59 Mostly Cloudy 79 26.1 73 22.8 82 82 SSE 5 7 30.01 1016 10 16 0.00 0.00
7:59 pm 19:59 Mostly Cloudy 78 25.6 74 23.3 87 87 S 5 7 30.00 1016 9 14 0.00 0.00
8:59 pm 20:59 Mostly Cloudy 77 25 74 23.3 90 90 SSE 5 7 29.98 1015 10 16 0.00 0.00
9:59 pm 21:59 Partly Cloudy 78 25.6 73 22.8 85 85 SSW 3 6 29.99 1016 8 13 0.00 0.00
10:59 pm 22:59 Partly Cloudy 76 24.4 74 23.3 94 94 S 7 11 29.98 1015 8 13 0.00 0.00
11:59 pm 23:59 Partly Cloudy 78 25.6 74 23.3 87 87 S 7 11 29.96 1014 9 14 0.00 0.00

Powered by AerisWeather